Погода в Президенти-Пруденти

Бразилия     22°08′07″S   51°23′49″W
темп.,
°C
ветер,
м/с
пор.,
м/с
влажн.,
%
обл.,
%
осадки,
мм/ч
давл.,
гПа
погр.,
м
26 июля, пн
пн2600:00+18всв410460 0.0 1017144
03:00+17св410426 0.0 1016146
06:00+15св38420 0.0 1017116
09:00+20св58330 0.0 1019277
12:00+29ссв67240 0.0 10161240
15:00+31с45203 0.0 10132247
18:00+25с22281 0.0 101211
21:00+21св33330 0.0 101423
27 июля, вт
вт2700:00+20св34340 0.0 101438
03:00+18ссв36385 0.0 101379
06:00+16св224331 0.0 101413
09:00+22ссв714315 0.0 1013407
12:00+31сз68195 0.0 10121417
15:00+30з892278 0.0 10101634
18:00+24юз812448 0.0 1011638
21:00+17юз7138589 0.0 1015461
28 июля, ср
ср2800:00+15юз61175100 0.0 1016488
03:00+12юз61178100 0.1 1016525
06:00+11юз61180100 0.1 1018575
09:00+11юз71159100 0.3 1021530
12:00+15юз692695 0.0 1021936
15:00+18юз8101630 0.0 10191334
18:00+15юз71122100 0.0 1021685
21:00+10юз411376 0.0 1025301
29 июля, чт
чт2900:00+8юз41245100 0.0 1026331
03:00+5ююз3854100 0.0 1026155
06:00+4ююз3761100 0.0 1026115
09:00+8ююв574598 0.0 1027606
12:00+14ююв33265 0.0 10261111
15:00+17ю33175 0.0 10221357
18:00+12ю222399 0.0 102311
21:00+8ю1131100 0.0 102510
30 июля, пт
пт3000:00+7вюв2233100 0.0 102615
03:00+6вюв41042100 0.0 1026161
06:00+5вюв51358100 0.0 1026257
09:00+9вюв7114497 0.0 1027433
12:00+18вюв6724100 0.0 10251004
15:00+22вюв561868 0.0 10211395
18:00+16юв4529100 0.0 102161
21:00+12вюв5145267 0.0 1023250